Location: Barcelona
(41.3830°N, 2.1830°E)
Time: 22:53:01
(UTC+02:00)

ISS - Pass Details

Date: 26 July 2017
Orbit: 400 x 408 km, 51.6° (Epoch: 24 July)

Event Time Altitude Azimuth Distance (km) Brightness Sun altitude
Rises 22:18:33 0° 248° (WSW) 2,302 0.4 -11.0°
Reaches altitude 10° 22:20:40 10° 255° (WSW) 1,446 -0.5 -11.3°
Maximum altitude 22:23:48 45° 330° (NNW) 553 -2.7 -11.7°
Drops below altitude 10° 22:26:57 10° 45° (NE) 1,452 -1.1 -12.2°
Sets 22:29:05 0° 52° (NE) 2,313 -0.1 -12.5°
